Location: Rülzheim
(49.1561°N, 8.2920°E)
Time: 07:23:12
(UTC+00:00)

Daily predictions for brighter satellites

Satellite Brightness Start Highest point End
(mag) Time Altitude Azimuth Time Altitude Azimuth Time Altitude Azimuth
Tiangong 2.7 20:13:03 10° SW 20:15:29 20° S 20:17:55 10° SE
Cosmos 1975 Rocket 3.1 20:12:03 10° S 20:16:29 75° E 20:20:56 10° NNE
CARTOSAT-1 3.6 20:13:51 10° SSE 20:18:09 82° ENE 20:22:30 10° NNW
IRAS Rocket 4.3 20:14:08 10° NNE 20:19:45 66° ESE 20:25:16 10° S
Cosmos 1656 4.3 20:15:31 10° NNW 20:20:45 44° NE 20:26:01 10° SE
Cosmos 2084 3.5 20:17:38 10° SSW 20:21:17 44° SE 20:24:59 10° NE
USA 276 2.8 20:26:25 10° SW 20:29:06 30° SSE 20:31:47 10° E
ATLAS 2AS CENTAUR R/B 2.8 20:24:00 10° NW 20:31:13 89° SW 20:37:56 10° SE
Spot 2 Rocket 3.7 20:26:17 10° SSE 20:31:19 65° ENE 20:36:23 10° N
Cosmos 1544 Rocket 3.6 20:28:52 10° N 20:33:12 72° E 20:37:31 10° SSE
Meteor 1-24 Rocket 3.6 20:28:42 10° S 20:34:00 79° E 20:39:28 10° NNE
Lacrosse 5 1.9 20:30:45 10° WNW 20:35:53 81° SW 20:40:57 10° SE
Cosmos 1371 Rocket 4.1 20:31:09 10° SSW 20:36:23 89° ESE 20:41:43 10° NNE
USA 234 3.9 20:30:18 10° E 20:36:40 56° NNE 20:43:03 10° WNW
Cosmos 1452 Rocket 4.4 20:32:40 10° SSE 20:37:12 30° E 20:41:45 10° NE
X-37B 1.4 20:36:33 10° SW 20:38:58 26° SSE 20:41:23 10° ESE
Cosmos 1833 Rocket 4.0 20:36:18 10° SSE 20:40:25 21° E 20:44:32 10° NE
Terra 2.1 20:38:02 10° SSE 20:42:40 55° ENE 20:47:21 10° N
FALCON 9 DEB 4.0 20:42:03 10° W 20:45:14 50° NNW 20:48:26 10° ENE
Cosmos 2184 Rocket 4.2 20:39:57 10° N 20:46:02 56° ENE 20:51:50 11° SSE
Resurs 01 Rocket 3.5 20:45:45 10° SSW 20:49:30 26° W 20:53:16 10° NW
Cosmos 724 4.3 20:46:36 10° SSW 20:52:15 58° ESE 20:57:56 10° NE
CZ-4B R/B 3.4 20:52:53 10° NNW 20:55:19 24° WNW 20:57:43 10° SW
Helios 1A Rocket 3.0 20:51:31 11° SSE 20:55:30 82° WSW 20:59:37 10° NNW
Cosmos 1624 Rocket 4.4 20:51:30 10° SSW 20:56:44 70° WNW 21:01:57 10° NNE
Lacrosse 5 rocket 2.4 20:55:26 10° WNW 20:58:53 31° SW 21:01:56 13° SSE
Cosmos 1271 Rocket 3.2 20:56:34 10° NNW 21:00:31 61° W 21:04:25 10° S
Cosmos 2082 Rocket 4.0 21:01:01 11° ESE 21:03:26 14° E 21:06:15 10° ENE
SPOT 3 Rocket 4.4 21:00:33 10° S 21:05:31 46° W 21:10:33 10° NNW
NOSS 2-1 (E) 4.2 21:01:21 10° NW 21:05:54 67° SW 21:11:18 15° SSE
ERS-1 Rocket 3.2 21:03:41 11° S 21:08:33 73° WSW 21:13:35 10° NNW
RESURS DK-1 2.7 21:05:53 10° NNW 21:09:59 58° NE 21:13:07 16° SE
CZ-2C R/B 3.7 21:11:48 10° NNE 21:16:27 84° ESE 21:20:58 10° SSW
ARIANE 5 R/B 2.6 21:18:10 16° SSE 21:21:44 86° WSW 21:26:13 10° NNW
Cosmos 1741 Rocket 4.0 21:16:25 10° NNW 21:21:46 87° ENE 21:25:51 18° SSE
Cosmos 2344 4.3 21:18:54 10° NW 21:27:30 74° NE 21:38:57 11° SE
SL-8 R/B 3.6 21:23:57 10° W 21:28:46 73° SSW 21:33:28 11° ESE
GP-B 4.1 21:27:21 10° NNE 21:31:24 33° E 21:33:53 19° SE
Cosmos 1455 4.0 21:28:18 10° NNW 21:31:32 27° W 21:34:47 10° SSW
Cosmos 2074 Rocket 4.3 21:28:21 10° NNW 21:34:35 67° W 21:40:08 13° S
ASTEX 1 3.8 21:34:44 10° NNE 21:39:37 50° E 21:42:46 21° SSE
COSMOS 2406 3.9 21:37:53 19° SSE 21:41:28 38° ESE 21:46:43 10° NE
Cosmos 2369 4.2 21:38:12 10° NNW 21:43:51 56° NE 21:48:09 17° SE
TSX-5 4.5 21:39:49 10° SW 21:44:18 82° WNW 21:50:11 10° NNE
USA 267 3.2 21:37:50 10° ENE 21:44:21 65° SE 21:50:50 10° SW
SL-16 R/B 4.3 21:40:26 10° N 21:44:39 21° NE 21:48:51 10° E
Cosmos 2228 3.4 21:45:02 10° NNW 21:49:11 55° W 21:52:05 19° SSW
SPOT 5 4.4 21:46:51 10° SSW 21:50:29 24° W 21:54:03 10° NW
Tiangong 3.6 21:50:22 10° SW 21:50:37 11° SW 21:50:37 11° SW
Cosmos 1850 Rocket 4.5 21:46:47 10° NNW 21:51:51 52° WSW 21:55:21 19° S
Cosmos 1980 Rocket 2.6 21:46:50 10° NNW 21:52:29 57° ENE 21:56:37 18° SE
Nadezhda 1 Rocket 4.0 21:47:09 13° S 21:52:35 85° W 21:58:42 10° N
Cosmos 1606 Rocket 3.6 21:49:58 10° NNW 21:54:17 76° W 21:56:56 23° S
Cosmos 1703 4.2 21:51:22 11° SSW 21:54:56 44° WNW 21:58:40 10° N
Cosmos 1697 Rocket 2.7 21:49:25 10° NNW 21:55:05 80° WSW 21:58:44 23° SSE
Cosmos 1892 3.5 21:55:58 25° SE 21:57:19 34° E 22:00:45 10° NNE
SJ 16-02 3.9 21:55:52 10° NNE 21:57:42 12° NE 21:59:30 10° ENE
Cosmos 2154 Rocket 4.3 21:53:15 10° NNW 21:59:24 62° W 22:04:14 17° S
Cosmos 2084 Rocket 3.6 21:56:18 10° NW 22:00:09 60° NE 22:02:44 21° ESE
Meteor 1-11 4.5 21:57:29 22° SSE 22:00:59 54° E 22:06:25 10° NNE
USA 276 1.9 22:01:36 10° W 22:04:36 86° NNW 22:07:37 10° E
Cosmos 1328 3.9 22:04:04 22° SSW 22:06:36 78° WNW 22:10:38 10° N
Cosmos 1331 Rocket 4.1 22:04:06 13° SSW 22:08:56 84° WNW 22:14:17 10° NNE
X-37B 1.8 22:11:29 10° WSW 22:12:57 23° SW 22:12:57 23° SW
Cosmos 1408 2.4 22:15:25 37° SSE 22:16:38 68° E 22:20:03 10° NNE
Lacrosse 5 3.6 22:14:40 10° W 22:18:13 19° WSW 22:20:08 16° SSW
SAR-Lupe-4 4.2 22:15:14 10° N 22:18:44 54° WNW 22:20:59 20° SW
Cosmos 1726 Rocket 4.0 22:14:49 10° NNW 22:19:03 54° W 22:21:23 24° SSW
USA 234 3.2 22:14:24 18° SE 22:19:34 75° SW 22:26:10 10° WNW
Terra 3.8 22:17:12 10° SW 22:20:46 21° W 22:24:20 10° NW
ATLAS 2AS CENTAUR R/B 4.3 22:16:06 10° WNW 22:21:10 22° WSW 22:25:25 12° SSW
FALCON 9 DEB 4.2 22:18:43 10° WNW 22:21:52 43° N 22:25:01 10° E
Cosmos 1833 Rocket 2.9 22:18:10 10° SW 22:23:46 70° WNW 22:29:25 10° NNE
Cosmos 2322 Rocket 4.0 22:19:20 10° NNW 22:24:04 26° NE 22:28:48 10° E
Cosmos 1867 3.7 22:22:09 10° NW 22:27:39 76° NE 22:31:18 22° SE
Cosmos 2278 4.0 22:22:54 10° NNW 22:28:37 64° ENE 22:32:24 21° SE
SL-8 Rocket 4.0 22:23:39 10° N 22:29:56 88° W 22:33:46 25° S
ATLAS 5 CENTAUR R/B 3.0 22:30:25 17° ESE 22:30:25 17° ESE 22:32:46 10° ENE
ALOS 2 2.8 22:32:45 29° SE 22:34:51 66° ENE 22:39:14 10° N
Cosmos 1302 Rocket 3.9 22:31:56 23° SSW 22:35:15 83° ESE 22:40:28 10° NNE
Cosmos 2218 Rocket 4.1 22:35:35 10° N 22:42:02 85° W 22:45:53 26° S
Cosmos 2366 rocket 4.0 22:39:27 10° N 22:45:47 81° W 22:49:34 26° S
Cosmos 2082 Rocket 2.2 22:42:49 22° SSW 22:46:35 80° ESE 22:52:19 10° NNE
Cosmos 1602 Rocket 4.1 22:45:32 31° SE 22:47:05 44° E 22:51:12 10° NNE
RESURS DK-1 4.4 22:44:50 10° WNW 22:47:32 17° WSW 22:48:58 15° SW
H-2A R/B 3.5 22:45:18 10° NNE 22:49:30 70° ESE 22:51:09 35° S
Cosmos 2341 Rocket 4.5 22:44:01 10° NNW 22:50:11 55° W 22:54:07 22° SSW
Cosmos 2058 Rocket 3.9 22:48:51 10° NNW 22:53:01 42° W 22:55:04 25° SSW
Spot 4 4.2 22:52:43 29° SSW 22:54:57 54° W 22:59:40 10° NNW
Cosmos 1825 2.1 22:58:50 40° SSW 23:00:05 80° W 23:03:52 10° N
Cosmos 2360 Rocket 3.7 22:58:40 10° NNW 23:03:45 32° NE 23:08:47 10° ESE
Cosmos 968 Rocket 4.2 23:00:14 10° NW 23:05:04 40° WSW 23:07:22 26° SSW
ERS-2 2.5 23:01:37 10° NNE 23:05:07 48° ESE 23:05:53 40° SE
Cosmos-2242 3.2 23:02:20 10° N 23:06:34 63° ENE 23:08:16 34° SSE
SL-8 R/B 4.4 23:06:38 10° W 23:10:54 32° SSW 23:11:22 31° SSW
Cosmos 1626 Rocket 3.6 23:10:22 32° SSW 23:12:15 70° W 23:16:37 10° N
Cosmos 1869 3.9 23:12:13 10° NNW 23:15:55 44° W 23:17:09 32° SW
Cosmos 1606 3.1 23:13:10 10° N 23:16:58 56° ENE 23:18:18 35° SE
BREEZE-M DEB (TANK) 3.9 23:14:12 10° W 23:17:45 82° S 23:32:40 10° ESE
Cosmos 2058 3.9 23:16:21 28° SE 23:17:45 36° E 23:21:37 10° NNE
Cosmos 1825 Rocket 4.1 23:22:58 32° SE 23:24:30 47° E 23:28:41 10° NNE
ADEOS Rocket 3.7 23:20:28 26° S 23:24:45 62° W 23:32:22 10° NNW
COSMOS 2406 4.2 23:20:13 10° SW 23:25:43 44° NW 23:31:14 10° NNE
Cosmos 1633 2.4 23:25:15 48° SSW 23:26:06 77° W 23:29:36 10° N
USA 267 3.8 23:20:56 10° ENE 23:27:21 60° NNW 23:33:45 10° W
SL-16 R/B 2.2 23:23:56 10° NNW 23:29:39 84° ENE 23:33:07 25° SSE
Meteor 2-20 4.4 23:32:16 28° SSW 23:35:44 82° WNW 23:41:52 10° N
Cosmos 1980 Rocket 3.4 23:31:24 10° NW 23:36:08 28° WSW 23:38:22 21° SW
SJ 16-02 1.4 23:32:39 10° NNW 23:37:06 73° ENE 23:39:13 30° SE
Cosmos 1486 Rocket 4.5 23:32:28 10° NNW 23:37:27 46° WSW 23:39:34 30° SSW
USA 276 1.9 23:37:22 10° W 23:40:23 81° N 23:43:23 10° E
Meteor 2-2 Rocket 4.4 23:36:18 10° N 23:42:19 76° ENE 23:45:55 26° SSE
Cosmos 1821 Rocket 4.2 23:36:22 10° NNW 23:42:32 63° W 23:45:54 28° SSW
Cosmos 2219 Rocket 3.9 23:39:09 10° NNW 23:44:07 30° NE 23:49:04 10° ESE
Cosmos 1340 Rocket 3.3 23:48:44 35° SSE 23:49:58 49° E 23:53:48 10° NNE
CZ-2D R/B 4.2 23:47:03 10° NE 23:50:11 16° E 23:53:18 10° SE
